Resolute,

1:35 AM CDT on August 17, 2017 (GMT -0500)
Resolute

Weather History for CYRB - October, 2011

Change the Weather History Date:

Sunday, October 30, 2011

  Actual Average Record
Temperature  
Mean Temperature 2 °F -  
Max Temperature 3 °F -6 °F 26 °F (2006)
Min Temperature -2 °F -18 °F -23 °F (2004)
Degree Days  
Heating Degree Days 64    
Moisture  
Dew Point -5 °F    
Average Humidity 71    
Maximum Humidity 85    
Minimum Humidity 46    
Precipitation  
Precipitation 0.00 in 0.01 in - ()
Sea Level Pressure  
Sea Level Pressure 30.01 in    
Wind  
Wind Speed 15 mph ()    
Max Wind Speed 25 mph    
Max Gust Speed 29 mph    
Visibility 14.5 miles    
Events Snow    
Averages and records for this station are not official NWS values.
T = Trace of Precipitation, MM = Missing Value Source: Averaged Metar Reports

Daily Weather History Graph

Daily Weather History Graph

Search for Another Location

Airport or City:

Trip Planner

Search our weather history database for the weather conditions in past years. The results will help you decide how hot, cold, wet, or windy it might be!

Date:

Astronomy

Oct. 30, 2011 Rise Set
Actual Time 10:53 AM CDT 3:12 PM CDT
Civil Twilight 9:00 AM CDT 5:04 PM CDT
Nautical Twilight 7:22 AM CDT 6:41 PM CDT
Astronomical Twilight 5:50 AM CDT 8:13 PM CDT
Moon No Moon Rise No Moon Set
Length of Visible Light 8h 03m
Length of Day
4h 18m
Waxing Crescent, 20% of the Moon is Illuminated
Oct 30
Waxing Crescent
Nov 2
First Quarter
Nov 10
Full
Nov 18
Last Quarter
Nov 25
New

Hourly Weather History & Observations

Time (CDT) Temp. Windchill Dew Point Humidity Pressure Visibility Wind Dir Wind Speed Gust Speed Precip Events Conditions
12:00 AM -0.4 °F -19.2 °F -4.0 °F 85% 30.04 in 8.0 mi South 13.8 mph - N/A Snow Light Snow
1:00 AM 0 °F - -4 °F 74% 30.04 in 15 mi South 13.8 mph - - Snow Light Snow
1:00 AM -0.4 °F -19.2 °F -4.0 °F 85% 30.04 in 15.0 mi South 13.8 mph - N/A Snow Light Snow
2:00 AM 1.4 °F -18.8 °F -4.0 °F 78% 30.04 in 15.0 mi South 17.3 mph - N/A Snow Light Snow
3:00 AM 1.4 °F -19.9 °F -4.0 °F 78% 30.03 in 15.0 mi South 19.6 mph - N/A Snow Light Snow
5:00 AM 1.4 °F -19.9 °F -2.2 °F 85% 30.03 in 15.0 mi South 19.6 mph - N/A Snow Light Snow
6:00 AM 1.4 °F -20.5 °F -2.2 °F 85% 30.04 in 15.0 mi South 20.7 mph - N/A Snow Light Snow
6:41 AM - - - N/A% - 15.0 mi South 25.3 mph - N/A   Unknown
7:00 AM 3 °F - -2 °F 70% 30.02 in 15 mi South 24.2 mph - - Snow Snow
7:00 AM 3.2 °F -19.5 °F -2.2 °F 78% 30.02 in 15.0 mi South 24.2 mph - N/A Snow Low Drifting Snow
8:00 AM 3.2 °F -19.0 °F -0.4 °F 85% 30.01 in 10.0 mi South 23.0 mph 28.8 mph N/A Snow Low Drifting Snow
9:00 AM 3.2 °F -16.5 °F -0.4 °F 85% 30.01 in 12.0 mi South 17.3 mph - N/A Snow Low Drifting Snow
9:28 AM - - - N/A% - 15.0 mi South 17.3 mph - N/A   Unknown
10:00 AM 3.2 °F -15.9 °F -2.2 °F 78% 30.02 in 15.0 mi South 16.1 mph - N/A Snow Low Drifting Snow
11:00 AM 3.2 °F -16.5 °F -4.0 °F 72% 30.02 in 15.0 mi SSE 17.3 mph - N/A Snow Low Drifting Snow
12:00 PM 3.2 °F -14.6 °F -5.8 °F 66% 30.02 in 15.0 mi SSE 13.8 mph - N/A   Scattered Clouds
1:00 PM 3 °F - -6 °F 51% 30.01 in 15 mi SSE 15.0 mph - -   Partly Cloudy
1:00 PM 3.2 °F -15.3 °F -5.8 °F 66% 30.01 in 15.0 mi SSE 15.0 mph - N/A   Partly Cloudy
2:00 PM 3.2 °F -12.2 °F -7.6 °F 61% 30.01 in 15.0 mi SE 10.4 mph - N/A   Partly Cloudy
3:00 PM 1.4 °F -17.6 °F -5.8 °F 72% 30.01 in 15.0 mi SE 15.0 mph - N/A   Partly Cloudy
4:00 PM 1.4 °F -18.2 °F -7.6 °F 66% 30.01 in 15.0 mi SE 16.1 mph - N/A Snow Low Drifting Snow
5:00 PM 1.4 °F -18.2 °F -9.4 °F 61% 30.01 in 15.0 mi SE 16.1 mph - N/A Snow Low Drifting Snow
6:00 PM 1.4 °F -16.9 °F -9.4 °F 61% 30.00 in 15.0 mi SE 13.8 mph - N/A Snow Low Drifting Snow
7:00 PM 2 °F - -8 °F 46% 30.00 in 15 mi ESE 13.8 mph - - Snow Low Drifting Snow
7:00 PM 1.4 °F -16.9 °F -7.6 °F 66% 30.00 in 15.0 mi ESE 13.8 mph 19.6 mph N/A Snow Low Drifting Snow
8:00 PM 1.4 °F -18.8 °F -9.4 °F 61% 29.99 in 15.0 mi SE 17.3 mph - N/A Snow Low Drifting Snow
9:00 PM -0.4 °F -22.3 °F -9.4 °F 66% 29.98 in 15.0 mi SE 19.6 mph - N/A Snow Low Drifting Snow
10:00 PM -0.4 °F -21.2 °F -7.6 °F 72% 29.97 in 15.0 mi SE 17.3 mph - N/A Snow Low Drifting Snow
11:00 PM -2.2 °F -24.1 °F -9.4 °F 71% 29.97 in 15.0 mi SE 18.4 mph - N/A Snow Low Drifting Snow